Weather History for Meridian, MS

Change the Weather History Date:

Wednesday, June 4, 2014

  Actual Average Record
Temperature  
Mean Temperature 78 °F 76 °F  
Max Temperature 87 °F 87 °F 99 °F (1985)
Min Temperature 68 °F 64 °F 50 °F (2001)
Degree Days  
Heating Degree Days 0 0  
Month to date heating degree days 0 0  
Since 1 June heating degree days 0 0  
Since 1 July heating degree days 2865 2553  
Cooling Degree Days 13 11  
Month to date cooling degree days 53 41  
Year to date cooling degree days 323 324  
Since 1 June cooling degree days 53 41  
Growing Degree Days 28 (Base 50)    
Moisture  
Dew Point 68 °F    
Average Humidity 75    
Maximum Humidity 100    
Minimum Humidity 50    
Precipitation  
Precipitation 0.00 in 0.14 in 3.40 in (1928)
Month to date precipitation 1.25 0.58  
Year to date precipitation 32.97 26.01  
Sea Level Pressure  
Sea Level Pressure 29.97 in    
Wind  
Wind Speed 4 mph (SSW)    
Max Wind Speed 13 mph    
Max Gust Speed 16 mph    
Visibility 5 miles    
Events Fog    
T = Trace of Precipitation, MM = Missing Value Source: NWS Daily Summary

Daily Weather History Graph

Daily Weather History Graph

Search for Another Location

Airport:

Trip Planner

Search our weather history database for the weather conditions in past years. The results will help you decide how hot, cold, wet, or windy it might be!

Date:

Astronomy

Jun. 04, 2014 Rise Set
Actual Time 5:48 AM CDT 7:58 PM CDT
Civil Twilight 5:20 AM CDT 8:26 PM CDT
Nautical Twilight 4:45 AM CDT 9:01 PM CDT
Astronomical Twilight 4:08 AM CDT 9:38 PM CDT
Moon 11:52 AM CDT (6/4) 12:11 AM CDT (6/4)
Length of Visible Light 15h 06m
Length of Day
14h 10m
Waxing Crescent, 39% of the Moon is Illuminated
Jun 4
Waxing Crescent
Jun 5
First Quarter
Jun 12
Full
Jun 19
Last Quarter
Jun 27
New

Hourly Weather History & Observations

Time (CDT) Temp. Heat Index Dew Point Humidity Pressure Visibility Wind Dir Wind Speed Gust Speed Precip Events Conditions
12:58 AM 70.0 °F - 69.1 °F 97% 29.99 in 7.0 mi Calm Calm - N/A   Clear
1:58 AM 69.1 °F - 68.0 °F 96% 29.98 in 7.0 mi Calm Calm - N/A   Clear
2:13 AM 69.8 °F - 68.0 °F 94% 29.98 in 2.5 mi Calm Calm - N/A   Clear
2:17 AM 68.0 °F - 66.2 °F 94% 29.98 in 1.0 mi Calm Calm - N/A   Mist
2:21 AM 68.0 °F - 66.2 °F 94% 29.98 in 0.8 mi South 3.5 mph - N/A   Mist
2:28 AM 68.0 °F - 68.0 °F 100% 29.98 in 2.0 mi South 3.5 mph - N/A   Mostly Cloudy
2:35 AM 68.0 °F - 68.0 °F 100% 29.98 in 4.0 mi Calm Calm - N/A   Mostly Cloudy
2:45 AM 68.0 °F - 66.2 °F 94% 29.98 in 2.5 mi Calm Calm - N/A   Mostly Cloudy
2:47 AM 68.0 °F - 66.2 °F 94% 29.98 in 1.2 mi Calm Calm - N/A   Mostly Cloudy
2:55 AM 68.0 °F - 66.2 °F 94% 29.98 in 0.5 mi South 3.5 mph - N/A Fog Fog
2:58 AM 68.0 °F - 68.0 °F 100% 29.97 in 0.5 mi South 3.5 mph - N/A Fog Fog
3:08 AM 68.0 °F - 66.2 °F 94% 29.97 in 1.8 mi Calm Calm - N/A   Overcast
3:16 AM 68.0 °F - 66.2 °F 94% 29.97 in 0.5 mi South 3.5 mph - N/A Fog Fog
3:24 AM 68.0 °F - 68.0 °F 100% 29.98 in 0.2 mi Calm Calm - N/A Fog Fog
3:58 AM 68.0 °F - 66.2 °F 94% 29.98 in 0.2 mi Calm Calm - N/A Fog Fog
4:17 AM 68.0 °F - 66.2 °F 94% 29.98 in 0.2 mi Calm Calm - N/A Fog Fog
4:36 AM 68.0 °F - 68.0 °F 100% 29.99 in 0.2 mi Calm Calm - N/A Fog Fog
4:46 AM 68.0 °F - 68.0 °F 100% 29.99 in 0.5 mi Calm Calm - N/A Fog Fog
4:58 AM 68.0 °F - 68.0 °F 100% 29.99 in 0.5 mi Calm Calm - N/A Fog Fog
5:25 AM 68.0 °F - 66.2 °F 94% 30.00 in 0.2 mi Calm Calm - N/A Fog Fog
5:58 AM 69.1 °F - 68.0 °F 96% 30.00 in 0.2 mi Calm Calm - N/A Fog Fog
6:06 AM 68.0 °F - 68.0 °F 100% 30.01 in 0.2 mi Calm Calm - N/A Fog Fog
6:58 AM 69.1 °F - 69.1 °F 100% 29.99 in 0.2 mi South 4.6 mph - N/A Fog Fog
7:23 AM 69.8 °F - 69.8 °F 100% 29.99 in 0.2 mi South 5.8 mph - N/A Fog Fog
7:54 AM 69.8 °F - 69.8 °F 100% 30.01 in 0.5 mi SSW 6.9 mph - N/A Fog Fog
7:58 AM 70.0 °F - 70.0 °F 100% 30.01 in 0.5 mi SSW 4.6 mph - N/A Fog Fog
8:04 AM 71.6 °F - 69.8 °F 94% 30.02 in 1.0 mi SSW 5.8 mph - N/A   Mist
8:16 AM 71.6 °F - 71.6 °F 100% 30.02 in 3.0 mi SSW 5.8 mph - N/A   Overcast
8:58 AM 72.0 °F - 71.1 °F 97% 30.01 in 10.0 mi South 8.1 mph - N/A   Overcast
9:23 AM 73.4 °F - 69.8 °F 88% 30.01 in 10.0 mi SSW 8.1 mph - N/A   Scattered Clouds
9:31 AM 75.2 °F - 69.8 °F 83% 30.01 in 10.0 mi South 9.2 mph - N/A   Mostly Cloudy
9:58 AM 77.0 °F - 69.1 °F 76% 30.01 in 10.0 mi SSW 6.9 mph - N/A   Mostly Cloudy
10:09 AM 78.8 °F - 68.0 °F 69% 30.02 in 10.0 mi SW 5.8 mph - N/A   Scattered Clouds
10:58 AM 80.1 °F 82.7 °F 68.0 °F 67% 30.01 in 10.0 mi Variable 3.5 mph - N/A   Clear
11:58 AM 82.9 °F 85.0 °F 66.0 °F 56% 30.00 in 10.0 mi Calm Calm - N/A   Scattered Clouds
12:58 PM 84.9 °F 87.6 °F 66.9 °F 55% 29.99 in 10.0 mi Calm Calm - N/A   Scattered Clouds
1:58 PM 84.9 °F 87.6 °F 66.9 °F 55% 29.96 in 10.0 mi Variable 3.5 mph - N/A   Scattered Clouds
2:58 PM 87.1 °F 89.2 °F 66.0 °F 49% 29.93 in 10.0 mi South 8.1 mph - N/A   Partly Cloudy
3:58 PM 87.8 °F 90.4 °F 66.2 °F 49% 29.91 in 10.0 mi South 9.2 mph - N/A   Clear
4:58 PM 86.0 °F 88.8 °F 66.9 °F 53% 29.88 in 10.0 mi SSW 11.5 mph - N/A   Partly Cloudy
5:58 PM 84.9 °F 87.6 °F 66.9 °F 55% 29.88 in 10.0 mi SW 8.1 mph - N/A   Partly Cloudy
6:58 PM 84.0 °F 87.8 °F 69.1 °F 61% 29.88 in 10.0 mi SW 4.6 mph - N/A   Clear
7:58 PM 79.0 °F - 71.1 °F 77% 29.88 in 10.0 mi Calm Calm - N/A   Clear
8:58 PM 75.9 °F - 71.1 °F 85% 29.88 in 10.0 mi Calm Calm - N/A   Clear
9:58 PM 75.0 °F - 71.1 °F 87% 29.90 in 10.0 mi Calm Calm - N/A   Clear
10:58 PM 73.9 °F - 71.1 °F 91% 29.92 in 10.0 mi Calm Calm - N/A   Partly Cloudy
11:58 PM 73.0 °F - 70.0 °F 90% 29.91 in 10.0 mi SSW 5.8 mph - N/A   Clear